Regional Weather Roundup
Issued by NWS Kansas City/Pleasant Hill, MO

Home | Current Version | Previous Version | Text Only | Print | Product List | Glossary On
Versions: 1 2 3 4 5 6 7 8 9 10 11 12 13 14 15 16 17 18 19 20 21 22 23 24 25 26 27 28 29 30 31 32 33 34 35 36 37 38 39 40 41 42 43 44 45 46 47 48 49 50
000
ASUS43 KEAX 282104
RWREAX

WEATHER ROUNDUP FOR EASTERN KANSAS AND NORTHWEST MISSOURI
NATIONAL WEATHER SERVICE KANSAS CITY/PLEASANT HILL MO
300 PM CST SUN DEC 28 2014

KSZ040-057-103>105-MOZ028-029-037-043-282200-
...KANSAS CITY METROPOLITAN AREA...

CITY           SKY/WX    TMP DP  RH WIND       PRES   REMARKS
K.C. INTL      MOSUNNY   39  17  41 SW7       30.12F WCI  34
K.C. DOWNTOWN  SUNNY     41  18  39 S6        30.14F
LEES SUMMIT    SUNNY     39  18  42 S3        30.14F
OLATHE - IXD   SUNNY     38  20  48 S8        30.14F WCI  32
OLATHE - OJC   SUNNY     38  19  46 S7        30.13F WCI  33
LAWRENCE       SUNNY     39  19  44 S6        30.14F WCI  35

$$

MOZ001>008-011>017-020>025-030>033-038>040-044>046-053-054-282200-
...NORTHERN AND CENTRAL MISSOURI...

CITY           SKY/WX    TMP DP  RH WIND       PRES   REMARKS
ST. JOSEPH     SUNNY     40  17  39 S8        30.14F WCI  34
MOSBY          CLEAR     39  18  41 CALM      30.14F
WARRENSBURG    SUNNY     37  19  48 SE3       30.17S
WHITEMAN AFB   NOT AVBL
CLINTON        SUNNY     37  23  56 SW5       30.18S WCI  34
SEDALIA        SUNNY     38  18  44 CALM      30.17F
WARSAW         NOT AVBL
MARSHALL       SUNNY     39  21  48 SW3       30.17F
CHILLICOTHE      N/A     40  21  46 CALM      30.16F
MOBERLY        SUNNY     39  14  35 SW3       30.17F
KIRKSVILLE     SUNNY     37  18  46 W5        30.15F WCI  33

$$

MOZ041-047>049-056>058-063>065-088>090-097-282200-
...EASTERN AND SOUTHERN MISSOURI...

CITY           SKY/WX    TMP DP  RH WIND       PRES   REMARKS
ST. LOUIS INTL MOSUNNY   37  23  56 W3        30.21S
SPIRIT OF STL  MOSUNNY   36  25  64 CALM      30.20S
COLUMBIA       SUNNY     37  23  56 SW5       30.17F WCI  33
JEFFERSON CITY SUNNY     39  24  55 CALM      30.19F
MEXICO         SUNNY     39  28  65 W5        30.17F
HANNIBAL       SUNNY     39  18  41 W7        30.18S WCI  34
ROLLA          SUNNY     36  25  64 N5        30.15S WCI  32
LEBANON        SUNNY     37  25  60 CALM      30.15F
OSAGE BEACH    SUNNY     37  23  56 CALM      30.17F
SPRINGFIELD    SUNNY     38  23  55 CALM      30.15S
BRANSON        SUNNY     39  25  56 CALM      30.15F
NEVADA         SUNNY     37  21  52 CALM      30.18S
JOPLIN         SUNNY     38  23  55 CALM      30.17F
WEST PLAINS    MOSUNNY   35  25  66 CALM      30.16R

$$

IAZ060-094-KSZ022-034>040-054-083-096-NEZ052-066-093-282200-
...KANSAS...SOUTHEAST NEBRASKA AND IOWA...

CITY           SKY/WX    TMP DP  RH WIND       PRES   REMARKS
TOPEKA         SUNNY     41  20  43 S6        30.13F
MANHATTAN      SUNNY     40  20  44 CALM      30.10F
EMPORIA        MOSUNNY   39  19  44 S8        30.11F WCI  33
CHANUTE        SUNNY     39  18  42 SW3       30.15F
WICHITA        MOSUNNY   41  20  43 S12       30.09F WCI  34
OMAHA          PTSUNNY   34  20  56 E3        30.12F
LINCOLN        MOSUNNY   33  19  56 VRB3      30.11S
FALLS CITY     SUNNY     41  20  43 CALM      30.11F
LAMONI         SUNNY     37  21  52 SW10      30.12S WCI  30
DES MOINES     MOSUNNY   35  23  61 SW3       30.14S

$$




USA.gov is the U.S. government's official web portal to all federal, state and local government web resources and services.